Location: W�rzburg
(49.7529°N, 9.8822°E)
Time: 22:16:54
(UTC+01:00)

ISS - Pass Details

Date: 13 November 2017
Orbit: 402 x 407 km, 51.6° (Epoch: 22 November)

Event Time Altitude Azimuth Distance (km) Brightness Sun altitude
Exits shadow 06:35:12 12° 274° (W) 1,337 -1.8 -8.9°
Maximum altitude 06:37:49 31° 213° (SSW) 730 -2.7 -8.5°
Drops below altitude 10° 06:40:44 10° 149° (SSE) 1,450 -0.2 -8.1°
Sets 06:42:56 0° 138° (SE) 2,306 1.2 -7.7°
